Regional Weather Roundup
Issued by NWS Charleston, SC

Current Version | Previous Version | Text Only | Print | Product List | Glossary Off
Versions: 1 2 3 4 5 6 7 8 9 10 11 12 13 14 15 16 17 18 19 20 21 22 23 24 25 26 27 28 29 30 31 32 33 34 35 36 37 38 39 40 41 42 43 44 45 46 47 48 49 50
000 ASUS42 KCHS 201727 RWRCHS REGIONAL WEATHER ROUNDUP NATIONAL WEATHER SERVICE CHARLESTON SC 100 PM EDT SUN AUG 20 2017 NOTE: "FAIR" INDICATES FEW OR NO CLOUDS BELOW 12,000 FEET WITH NO SIGNIFICANT WEATHER AND/OR OBSTRUCTIONS TO VISIBILITY. NOT ALL STATIONS ARE QUALITY CONTROLLED. USE DATA WITH CAUTION... ESPECIALLY DEWPOINT OBSERVATIONS. SCZ027-030-031-034>040-042>050-201800- ...SOUTHEAST SOUTH CAROLINA... CITY SKY/WX TMP DP RH WIND PRES REMARKS N CHARLESTON MOSUNNY 90 78 68 S6 30.07S HX 104 WATERFRONT PRK N/A 87 79 76 CALM 29.93S HX 101 JOHNS ISLAND FAIR 91 77 62 CALM 30.07F HX 105 PINOPOLIS N/A 88 79 74 VRB2 30.01S HX 102 MONCKS CORNER FAIR 91 66 43 E5 30.07F HX 94 SUMMERVILLE FAIR 91 72 52 NE3 30.08S HX 98 BEAUFORT MCAS SUNNY 93 80 65 VRB5 30.07S HX 112 BEAUFORT ARPT CLOUDY 90 77 66 SE5 30.06F HX 102 HILTON HEAD IS MOSUNNY 90 77 66 SE6 30.08S HX 102 WALTERBORO MOSUNNY 91 72 52 SE8 30.08S HX 98 ALLENDALE NOT AVBL ...SOUTHERN MIDLANDS AND PEE DEE... CITY SKY/WX TMP DP RH WIND PRES REMARKS GEORGETOWN FAIR 91 72 52 SE7 30.08F HX 98 KINGSTREE FAIR 90 72 55 CALM 30.08S HX 96 ORANGEBURG MOSUNNY 93 69 45 VRB3 30.08S HX 98 BARNWELL FAIR 95 70 43 N5 30.08S HX 101 AIKEN FAIR 91 70 49 S5 30.13R HX 97 MANNING FAIR 91 70 49 NE12G24 30.08S HX 97 COLUMBIA PTSUNNY 93 72 50 VRB6 30.07S HX 101 SUMTER MOSUNNY 94 65 38 E6 30.06S HX 96 FLORENCE SUNNY 91 69 48 CALM 30.09S HX 96 MYRTLE BEACH MOSUNNY 90 81 74 MISG 30.09S HX 108 N MYRTLE BEACH SUNNY 87 78 74 SE8 30.09S HX 100 $$ GAZ063-065-086>088-099>101-113>116-118-119-134>141-150-201800- ...SOUTHEAST GEORGIA... CITY SKY/WX TMP DP RH WIND PRES REMARKS SAVANNAH ARPT PTSUNNY 93 76 57 E8 30.07S HX 105 HUNTER AAF MOSUNNY 91 79 66 S5 30.04F HX 107 FORT STEWART PTSUNNY 92 76 60 E7 30.04F HX 103 STATESBORO MOSUNNY 93 66 41 SE5 30.07F HX 96 SYLVANIA MOSUNNY 92 75 56 CALM 30.08F HX 103 CLAXTON FAIR 94 73 51 E5 30.07S HX 102 ...CSRA...CENTRAL AND FAR SOUTHEAST GEORGIA... CITY SKY/WX TMP DP RH WIND PRES REMARKS THOMSON SUNNY 91 72 53 S5 30.14S HX 98 AUGUSTA-BUSH MOSUNNY 95 68 41 E6 30.07S HX 99 AUGUSTA-DANIEL MOSUNNY 94 68 42 E6 30.09S HX 98 SWAINSBORO FAIR 91 70 49 N5 30.09S HX 97 VIDALIA MOSUNNY 95 70 43 CALM 30.07F HX 101 EASTMAN FAIR 95 47 19 S3 30.10S HX 91 HAZLEHURST FAIR 95 50 21 CALM 30.06S HX 91 ALMA SUNNY 95 69 42 S6 30.06F HX 100 WAYCROSS MOSUNNY 94 65 38 NW3 30.06S HX 95 JESUP FAIR 95 73 49 E5 30.06S HX 105 BAXLEY FAIR 91 68 46 N3 30.06S HX 95 BRUNSWICK SUNNY 91 72 52 E8 30.06F HX 98 SAINT SIMONS SUNNY 91 78 65 SE7 30.06S HX 106 $$ SCZ027-028-034-036>038-045-046-048>050-GAZ119-141-201800- ...LAKE AND SUPPLEMENTAL COASTAL OBSERVATIONS... STATION/POSITION TIME TEMP WIND PRES WAVE SWELL AIR SEA DIR/SP/G HT/PER HT/PER/DIR (UTC) (F) (DEG/KT/KT) (MB) (FT/S) (FT/S/D) WINYAH BAY 1645 87 130/ 6 1019.0S LAKE MURRAY 1630 91 120/ 2/ 6 1017.3F ACE BASIN NERRS 1630 90 CALM 1018.0S FORT PULASKI 1700 89 87 170/ 5/ 7 1018.7 SAPELO ISLAND 1700 92 CALM 1018.0 $$ ANZ835-935-AMZ111-154-330-350-352-354-370-450-454-472-201800- ...C-MAN AND BUOY OBSERVATIONS... STATION/POSITION TIME TEMP WIND PRES WAVE SWELL AIR SEA DIR/SP/G HT/PER HT/PER/DIR (UTC) (F) (DEG/KT/KT) (MB) (FT/S) (FT/S/D) BUOY 41004 1710 85 85 CALM / 4 1018.5 BUOY 41008 1650 84 86 180/ 4/ 6 1018.3R 2/ 9 2/110/ 9 FOLLY BEACH CMAN 1700 87 120/ 5/ 6 1019.2S CAPERS NEARSHORE 1708 88 87 110/ 6/ 8 1018.6F FRIPP NEARSHORE 1708 86 180/ 4/ 6 1018.2S STATION/POSITION TIME TEMP WIND PRES WAVE SWELL AIR SEA DIR/SP/G HT/PER HT/PER/DIR (UTC) (F) (DEG/KT/KT) (MB) (FT/S) (FT/S/D) 5E ST. MARYS GA 1700 85 N/A 2/ 9 FRYING PAN BUOY 1710 84 85 100/ 4/ 8 1018.6 BUOY 41025 1650 80 85 340/ 4/ 6 1019.1S 3/ 8 2/150/ 8 CAPE LOOKOUT NC 1700 81 90/ 3/ 4 1018.9R BUOY 41002 1650 83 85 160/ 6/ 8 1020.2R 3/ 8 3/100/ 8 BUOY 41010 1710 79 85 300/ 6/ 8 1018.4 ST AUGUSTINE FL 1700 83 83 120/ 8/ 8 1018.4F $$

USA.gov is the U.S. government's official web portal to all federal, state and local government web resources and services.